Weather History for Yakima, WA

Change the Weather History Date:

Thursday, April 18, 2013

  Actual Average Record
Temperature  
Mean Temperature 55 °F 49 °F  
Max Temperature 69 °F 64 °F 84 °F (1952)
Min Temperature 40 °F 35 °F 23 °F (1964)
Degree Days  
Heating Degree Days 10 16  
Month to date heating degree days 266 308  
Since 1 July heating degree days 4824 5512  
Cooling Degree Days 0 0  
Month to date cooling degree days 0 0  
Year to date cooling degree days 0 0  
Growing Degree Days 6 (Base 50)    
Moisture  
Dew Point 35 °F    
Average Humidity 51    
Maximum Humidity 70    
Minimum Humidity 32    
Precipitation  
Precipitation T in 0.02 in 0.43 in (1984)
Month to date precipitation 0.40 0.31  
Year to date precipitation 1.30 2.85  
Snow  
Snow 0.00 in 0.00 in 0.00 in (2002)
Month to date snowfall 0.0 0.0  
Year to date snowfall 1.1 8.6  
Since 1 July snowfall 15.3 21.6  
Snow Depth 0.00 in    
Sea Level Pressure  
Sea Level Pressure 30.29 in    
Wind  
Wind Speed 4 mph (West)    
Max Wind Speed 14 mph    
Max Gust Speed 16 mph    
Visibility 10 miles    
Events      
T = Trace of Precipitation, MM = Missing Value Source: NWS Daily Summary

Daily Weather History Graph

Daily Weather History Graph

Search for Another Location

Airport:

Trip Planner

Search our weather history database for the weather conditions in past years. The results will help you decide how hot, cold, wet, or windy it might be!

Date:

Astronomy

Apr. 18, 2013 Rise Set
Actual Time 6:09 AM PDT 7:54 PM PDT
Civil Twilight 5:37 AM PDT 8:26 PM PDT
Nautical Twilight 4:58 AM PDT 9:06 PM PDT
Astronomical Twilight 4:15 AM PDT 9:48 PM PDT
Moon 12:22 PM PDT (4/18) 2:16 AM PDT (4/18)
Length of Visible Light 14h 49m
Length of Day
13h 45m
First Quarter, 53% of the Moon is Illuminated
Apr 18
First Quarter
Apr 25
Full
May 2
Last Quarter
May 9
New
May 17
First Quarter

Hourly Weather History & Observations

Time (PDT) Temp. Windchill Dew Point Humidity Pressure Visibility Wind Dir Wind Speed Gust Speed Precip Events Conditions
12:53 AM 44.1 °F 40.8 °F 30.0 °F 58% 30.35 in 10.0 mi WSW 5.8 mph - N/A   Clear
1:53 AM 43.0 °F 41.3 °F 30.0 °F 60% 30.35 in 10.0 mi South 3.5 mph - N/A   Clear
2:53 AM 44.1 °F 42.5 °F 30.9 °F 60% 30.35 in 10.0 mi NNW 3.5 mph - N/A   Overcast
3:53 AM 42.1 °F - 30.9 °F 65% 30.35 in 10.0 mi Calm Calm - N/A   Overcast
4:53 AM 43.0 °F - 33.1 °F 68% 30.35 in 10.0 mi Calm Calm - N/A   Scattered Clouds
5:53 AM 43.0 °F 41.3 °F 33.1 °F 68% 30.35 in 10.0 mi SSW 3.5 mph - 0.00 in   Mostly Cloudy
6:53 AM 44.1 °F 42.5 °F 34.0 °F 68% 30.35 in 10.0 mi WNW 3.5 mph - N/A   Mostly Cloudy
7:53 AM 51.1 °F - 34.0 °F 52% 30.35 in 10.0 mi Calm Calm - N/A   Mostly Cloudy
8:53 AM 54.0 °F - 33.1 °F 45% 30.36 in 10.0 mi NNW 9.2 mph - N/A   Partly Cloudy
9:53 AM 57.0 °F - 33.1 °F 40% 30.35 in 10.0 mi West 3.5 mph - N/A   Clear
10:53 AM 57.0 °F - 34.0 °F 42% 30.34 in 10.0 mi Calm Calm - N/A   Clear
11:53 AM 63.0 °F - 35.1 °F 35% 30.32 in 10.0 mi Variable 3.5 mph - N/A   Clear
12:53 PM 63.0 °F - 35.1 °F 35% 30.30 in 10.0 mi Variable 4.6 mph - N/A   Partly Cloudy
1:53 PM 66.9 °F - 36.0 °F 32% 30.28 in 10.0 mi Variable 3.5 mph - N/A   Mostly Cloudy
2:53 PM 66.9 °F - 36.0 °F 32% 30.26 in 10.0 mi Calm Calm - N/A   Mostly Cloudy
3:53 PM 68.0 °F - 37.0 °F 32% 30.24 in 10.0 mi West 6.9 mph - N/A   Scattered Clouds
4:53 PM 66.0 °F - 36.0 °F 33% 30.22 in 10.0 mi West 5.8 mph - N/A   Mostly Cloudy
5:53 PM 63.0 °F - 37.0 °F 38% 30.22 in 10.0 mi WSW 8.1 mph - N/A   Mostly Cloudy
6:53 PM 61.0 °F - 37.9 °F 42% 30.22 in 10.0 mi WSW 5.8 mph - N/A   Mostly Cloudy
7:53 PM 60.1 °F - 37.9 °F 44% 30.21 in 10.0 mi WNW 8.1 mph - N/A   Mostly Cloudy
8:53 PM 60.1 °F - 37.0 °F 42% 30.21 in 10.0 mi NNW 6.9 mph - N/A   Partly Cloudy
9:53 PM 57.9 °F - 37.0 °F 46% 30.22 in 10.0 mi NW 4.6 mph - N/A   Mostly Cloudy
10:53 PM 55.9 °F - 37.9 °F 51% 30.20 in 10.0 mi NNW 9.2 mph - N/A   Mostly Cloudy
11:53 PM 54.0 °F - 39.0 °F 57% 30.18 in 10.0 mi Calm Calm - N/A   Clear